This demonstration page uses our WeatherBlox Daily Observations layout. Learn more.

Left ArrowRight Arrow

44.8408, -93.29828

Hourly Observations for August 25, 2021

Temp ( °F °C ) Dew Point ( °F °C ) Humidity (%) Winds ( mph kmh ) Pressure ( in mb ) Visibility ( mi km ) Precip ( " mm )
12:53 am 00:53 Cloudy 74 23.3 66 18.9 76 76 Calm 29.93 1014 10 16 0.00 0.00
1:53 am 01:53 Cloudy 72 22.2 67 19.4 84 84 SE 3 6 29.93 1014 10 16 0.00 0.00
2:53 am 02:53 Mostly Cloudy 72 22.2 67 19.4 84 84 SSE 3 6 29.95 1014 10 16 0.00 0.00
3:53 am 03:53 Cloudy 71 21.7 67 19.4 87 87 S 3 6 29.97 1015 10 16 0.00 0.00
4:53 am 04:53 Mostly Clear 71 21.7 66 18.9 84 84 WSW 5 7 29.96 1015 10 16 0.00 0.00
5:53 am 05:53 Clear 70 21.1 66 18.9 87 87 WSW 5 7 29.97 1015 10 16 0.00 0.00
6:53 am 06:53 Sunny 69 20.6 66 18.9 90 90 WNW 3 6 29.98 1015 10 16 0.00 0.00
7:53 am 07:53 Sunny 72 22.2 68 20 87 87 NW 6 9 30.02 1017 10 16 0.00 0.00
8:53 am 08:53 Sunny 75 23.9 68 20 79 79 NNW 12 19 30.04 1017 10 16 0.00 0.00
9:53 am 09:53 Sunny 76 24.4 67 19.4 74 74 NNW 7 11 30.07 1018 10 16 0.00 0.00
10:53 am 10:53 Sunny 79 26.1 67 19.4 67 67 VRB 5 7 30.10 1019 10 16 0.00 0.00
11:53 am 11:53 Mostly Sunny 80 26.7 67 19.4 64 64 NW 9 15 30.09 1019 10 16 0.00 0.00
12:53 pm 12:53 Mostly Sunny 81 27.2 66 18.9 61 61 WNW 8 13 30.09 1019 10 16 0.00 0.00
1:53 pm 13:53 Mostly Sunny 81 27.2 64 17.8 57 57 NW 13 20 30.09 1019 10 16 0.00 0.00
2:53 pm 14:53 Mostly Sunny 83 28.3 62 16.7 49 49 WNW 13 20 30.09 1019 10 16 0.00 0.00
3:53 pm 15:53 Mostly Sunny 83 28.3 55 12.8 38 38 NNW 10 17 30.08 1019 10 16 0.00 0.00
4:53 pm 16:53 Mostly Cloudy 81 27.2 52 11.1 37 37 NNW 8 13 30.07 1018 10 16 0.00 0.00
5:53 pm 17:53 Mostly Cloudy 83 28.3 50 10 32 32 VRB 6 9 30.06 1018 10 16 0.00 0.00
6:53 pm 18:53 Mostly Cloudy 79 26.1 52 11.1 39 39 NW 10 17 30.10 1019 10 16 0.00 0.00
7:53 pm 19:53 Partly Cloudy 76 24.4 54 12.2 47 47 NW 5 7 30.09 1019 10 16 0.00 0.00
8:53 pm 20:53 Partly Cloudy 74 23.3 55 12.8 52 52 NNW 6 9 30.12 1020 10 16 0.00 0.00
9:53 pm 21:53 Partly Cloudy 72 22.2 55 12.8 55 55 VRB 3 6 30.13 1020 10 16 0.00 0.00
10:53 pm 22:53 Clear 71 21.7 55 12.8 57 57 NE 3 6 30.13 1020 10 16 0.00 0.00
11:53 pm 23:53 Clear 69 20.6 55 12.8 61 61 ENE 5 7 30.14 1021 10 16 0.00 0.00

Powered by AerisWeather